PH180 EDDG-EDDG

Flight info

Callsign PH180
Flight time 0h 21m
Altitude 6000
Route OSN2C OSN
Aircraft PA24/L-SDGRY/S

Departure

Time 2026-04-26 17:40
Airport Münster Osnabrück Airport (EDDG)

Arrival

Time 2026-04-26 18:01
Airport Münster Osnabrück Airport (EDDG)
Time Latitude Longitude Altitude Speed Heading
2026-04-26 17:30 52.13154 7.68318 164 ft 0 kts 270°
2026-04-26 17:34 52.13255 7.68325 164 ft 18 kts 337°
2026-04-26 17:34 52.13333 7.68280 164 ft 2 kts 342°
2026-04-26 17:34 52.13334 7.68279 164 ft 0 kts 342°
2026-04-26 17:35 52.13399 7.68198 163 ft 20 kts 276°
2026-04-26 17:35 52.13376 7.68063 162 ft 14 kts 252°
2026-04-26 17:36 52.13259 7.67518 156 ft 84 kts 253°
2026-04-26 17:36 52.13053 7.66486 319 ft 102 kts 255°
2026-04-26 17:36 52.13063 7.65430 594 ft 95 kts 322°
2026-04-26 17:36 52.13704 7.64933 688 ft 104 kts 357°
2026-04-26 17:37 52.14071 7.65895 658 ft 121 kts 71°
2026-04-26 17:37 52.14288 7.67143 673 ft 108 kts 73°
2026-04-26 17:37 52.14449 7.68303 688 ft 102 kts 76°
2026-04-26 17:38 52.14647 7.70538 650 ft 100 kts 81°
2026-04-26 17:38 52.14560 7.71546 669 ft 86 kts 126°
2026-04-26 17:38 52.13986 7.71724 567 ft 97 kts 224°
2026-04-26 17:38 52.13907 7.70616 335 ft 104 kts 255°
2026-04-26 17:39 52.13691 7.69555 175 ft 94 kts 253°
2026-04-26 17:39 52.13499 7.68636 161 ft 79 kts 252°
2026-04-26 17:39 52.13305 7.67660 319 ft 98 kts 250°
2026-04-26 17:39 52.13060 7.66610 623 ft 99 kts 251°
2026-04-26 17:40 52.12700 7.65763 938 ft 97 kts 196°
2026-04-26 17:40 52.12215 7.65900 900 ft 114 kts 154°
2026-04-26 17:40 52.12108 7.67331 917 ft 122 kts 68°
2026-04-26 17:40 52.12307 7.68744 771 ft 125 kts 75°
2026-04-26 17:41 52.12443 7.70083 702 ft 115 kts 79°
2026-04-26 17:41 52.12622 7.71195 797 ft 97 kts 57°
2026-04-26 17:41 52.13281 7.71395 865 ft 112 kts 349°
2026-04-26 17:41 52.13909 7.70867 659 ft 119 kts 281°
2026-04-26 17:42 52.13666 7.69433 178 ft 130 kts 253°
2026-04-26 17:42 52.13418 7.68242 164 ft 97 kts 253°
2026-04-26 17:42 52.13199 7.67203 160 ft 112 kts 254°
2026-04-26 17:42 52.12942 7.66022 460 ft 107 kts 252°
2026-04-26 17:43 52.12459 7.65433 824 ft 96 kts 166°
2026-04-26 17:43 52.11777 7.65785 996 ft 105 kts 153°
2026-04-26 17:43 52.11403 7.66681 1204 ft 104 kts 85°
2026-04-26 17:43 52.11566 7.67973 1083 ft 128 kts 71°
2026-04-26 17:44 52.11875 7.69321 929 ft 122 kts 66°
2026-04-26 17:44 52.12189 7.70552 857 ft 112 kts 67°
2026-04-26 17:44 52.12473 7.71665 856 ft 105 kts 64°
2026-04-26 17:44 52.12956 7.72267 931 ft 94 kts 355°
2026-04-26 17:45 52.13637 7.71998 799 ft 105 kts 347°
2026-04-26 17:45 52.14211 7.71320 622 ft 117 kts 272°
2026-04-26 17:45 52.13818 7.70129 246 ft 128 kts 250°
2026-04-26 17:45 52.13531 7.68794 197 ft 118 kts 253°
2026-04-26 17:46 52.13281 7.67602 475 ft 113 kts 252°
2026-04-26 17:46 52.13026 7.66455 846 ft 99 kts 251°
2026-04-26 17:46 52.12687 7.65510 1129 ft 104 kts 211°
2026-04-26 17:46 52.11909 7.65578 1140 ft 123 kts 165°
2026-04-26 17:47 52.11323 7.66457 1139 ft 126 kts 101°
2026-04-26 17:47 52.11429 7.67368 1140 ft 127 kts 74°
2026-04-26 17:47 52.11636 7.69284 1112 ft 131 kts 75°
2026-04-26 17:47 52.11890 7.70650 1261 ft 124 kts 70°
2026-04-26 17:48 52.12214 7.72001 1248 ft 132 kts 65°
2026-04-26 17:48 52.12619 7.73279 1406 ft 119 kts 42°
2026-04-26 17:48 52.13442 7.73260 1310 ft 134 kts 337°
2026-04-26 17:48 52.14202 7.72473 1398 ft 129 kts 313°
2026-04-26 17:49 52.14029 7.71028 751 ft 156 kts 247°
2026-04-26 17:49 52.13672 7.69447 175 ft 138 kts 254°
2026-04-26 17:49 52.13392 7.68111 531 ft 110 kts 250°
2026-04-26 17:49 52.13121 7.67022 975 ft 84 kts 249°
2026-04-26 17:50 52.12843 7.66163 1214 ft 88 kts 178°
2026-04-26 17:50 52.12210 7.66711 1131 ft 117 kts 151°
2026-04-26 17:50 52.11925 7.67767 1189 ft 119 kts 73°
2026-04-26 17:50 52.12177 7.69094 1199 ft 127 kts 70°
2026-04-26 17:51 52.12483 7.70503 1093 ft 136 kts 65°
2026-04-26 17:51 52.12907 7.71863 1112 ft 132 kts 58°
2026-04-26 17:51 52.13293 7.73175 1234 ft 127 kts 66°
2026-04-26 17:51 52.13853 7.73800 1253 ft 123 kts 347°
2026-04-26 17:52 52.14644 7.73170 1174 ft 134 kts 290°
2026-04-26 17:52 52.14140 7.71742 675 ft 157 kts 246°
2026-04-26 17:52 52.13786 7.70009 231 ft 163 kts 252°
2026-04-26 17:52 52.13437 7.68353 203 ft 148 kts 253°
2026-04-26 17:53 52.13114 7.66877 403 ft 133 kts 254°
2026-04-26 17:53 52.12852 7.65557 774 ft 115 kts 251°
2026-04-26 17:53 52.12465 7.64519 1045 ft 109 kts 191°
2026-04-26 17:54 52.11119 7.65866 1239 ft 116 kts 100°
2026-04-26 17:54 52.11289 7.67144 1317 ft 121 kts 74°
2026-04-26 17:54 52.11485 7.68477 1365 ft 126 kts 74°
2026-04-26 17:54 52.11705 7.69865 1403 ft 127 kts 73°
2026-04-26 17:55 52.11960 7.71287 1386 ft 133 kts 70°
2026-04-26 17:55 52.12273 7.72706 1379 ft 134 kts 70°
2026-04-26 17:55 52.12638 7.74073 1466 ft 126 kts 49°
2026-04-26 17:55 52.13456 7.74299 1354 ft 139 kts 331°
2026-04-26 17:56 52.14240 7.73386 1338 ft 135 kts 328°
2026-04-26 17:56 52.13871 7.70415 355 ft 170 kts 253°
2026-04-26 17:57 52.13159 7.67142 437 ft 132 kts 251°
2026-04-26 17:57 52.12863 7.65839 793 ft 109 kts 250°
2026-04-26 17:57 52.12857 7.64821 1239 ft 89 kts 310°
2026-04-26 17:57 52.13462 7.64385 1324 ft 108 kts 343°
2026-04-26 17:58 52.14488 7.67688 1095 ft 137 kts 70°
2026-04-26 17:59 52.15146 7.70486 1233 ft 128 kts 70°
2026-04-26 17:59 52.15387 7.71858 1313 ft 123 kts 75°
2026-04-26 17:59 52.15350 7.73178 1335 ft 122 kts 126°
2026-04-26 17:59 52.14533 7.73530 1196 ft 126 kts 186°
2026-04-26 18:00 52.14143 7.72513 792 ft 121 kts 273°
2026-04-26 18:00 52.14041 7.71184 402 ft 116 kts 251°
2026-04-26 18:00 52.13793 7.70032 210 ft 100 kts 252°
2026-04-26 18:00 52.13588 7.69055 165 ft 82 kts 251°
2026-04-26 18:01 52.13429 7.68345 165 ft 51 kts 250°
2026-04-26 18:01 52.13335 7.67868 158 ft 44 kts 251°
2026-04-26 18:01 52.13237 7.67402 155 ft 43 kts 250°
2026-04-26 18:01 52.13166 7.67094 157 ft 21 kts 248°
2026-04-26 18:02 52.13051 7.67115 159 ft 23 kts 129°
2026-04-26 18:02 52.13029 7.67195 159 ft 23 kts 99°
2026-04-26 18:02 52.13115 7.67637 156 ft 26 kts 73°
2026-04-26 18:02 52.13170 7.67913 161 ft 25 kts 70°
2026-04-26 18:03 52.13227 7.68177 164 ft 22 kts 72°
2026-04-26 18:03 52.13225 7.68342 164 ft 16 kts 153°
2026-04-26 18:03 52.13143 7.68281 164 ft 10 kts 177°
2026-04-26 18:03 52.13124 7.68249 163 ft 0 kts 270°
2026-04-26 18:06 52.13124 7.68248 163 ft 0 kts 272°
2026-04-26 18:06 52.13125 7.68219 163 ft 3 kts 295°
2026-04-26 18:07 52.13171 7.68215 162 ft 10 kts 45°
2026-04-26 18:07 52.13197 7.68331 164 ft 11 kts 66°
2026-04-26 18:07 52.13277 7.68310 164 ft 15 kts 340°
2026-04-26 18:07 52.13303 7.68295 164 ft 8 kts 339°
2026-04-26 18:08 52.13338 7.68277 164 ft 0 kts 341°
2026-04-26 18:08 52.13379 7.68252 164 ft 16 kts 333°
2026-04-26 18:08 52.13389 7.68130 162 ft 0 kts 252°
2026-04-26 18:08 52.13389 7.68129 162 ft 2 kts 251°
2026-04-26 18:09 52.13307 7.67745 158 ft 72 kts 253°
2026-04-26 18:09 52.13102 7.66762 257 ft 101 kts 254°
2026-04-26 18:09 52.12904 7.65618 452 ft 107 kts 260°
2026-04-26 18:09 52.12745 7.64429 677 ft 107 kts 260°
2026-04-26 18:10 52.12582 7.63229 901 ft 109 kts 260°
2026-04-26 18:10 52.12416 7.62019 1136 ft 110 kts 259°
2026-04-26 18:10 52.12243 7.60797 1369 ft 111 kts 259°
2026-04-26 18:10 52.12068 7.59528 1488 ft 123 kts 259°
2026-04-26 18:11 52.11942 7.58597 1500 ft 131 kts 259°
2026-04-26 18:11 52.11741 7.57104 1501 ft 138 kts 259°
2026-04-26 18:11 52.11535 7.55560 1499 ft 141 kts 259°
2026-04-26 18:11 52.11327 7.53990 1499 ft 142 kts 259°
2026-04-26 18:12 52.11120 7.52429 1499 ft 141 kts 259°
2026-04-26 18:12 52.10917 7.50872 1496 ft 140 kts 259°
2026-04-26 18:12 52.10715 7.49318 1498 ft 141 kts 259°
2026-04-26 18:12 52.10506 7.47759 1494 ft 142 kts 259°
2026-04-26 18:13 52.10294 7.46194 1497 ft 141 kts 259°
2026-04-26 18:13 52.10089 7.44631 1498 ft 141 kts 259°
2026-04-26 18:13 52.09888 7.43084 1498 ft 141 kts 259°
2026-04-26 18:13 52.09751 7.42025 1497 ft 141 kts 259°
2026-04-26 18:14 52.09480 7.39959 1492 ft 141 kts 259°
2026-04-26 18:14 52.09277 7.38403 1493 ft 141 kts 259°
2026-04-26 18:14 52.09068 7.36849 1491 ft 141 kts 259°
2026-04-26 18:14 52.08853 7.35291 1491 ft 141 kts 259°
2026-04-26 18:15 52.08635 7.33729 1490 ft 141 kts 258°
2026-04-26 18:15 52.08423 7.32171 1491 ft 141 kts 259°
2026-04-26 18:15 52.08125 7.30640 1494 ft 142 kts 250°
2026-04-26 18:15 52.07763 7.29134 1492 ft 144 kts 250°
2026-04-26 18:16 52.07166 7.27904 1485 ft 144 kts 207°
2026-04-26 18:16 52.05280 7.28358 1481 ft 141 kts 159°
2026-04-26 18:16 52.04350 7.28849 1483 ft 140 kts 159°
2026-04-26 18:17 52.03425 7.29342 1486 ft 139 kts 159°
2026-04-26 18:17 52.02500 7.29839 1486 ft 140 kts 159°
2026-04-26 18:17 52.01574 7.30337 1484 ft 140 kts 159°
2026-04-26 18:17 52.00652 7.30833 1485 ft 139 kts 159°
2026-04-26 18:18 51.99733 7.31327 1487 ft 139 kts 159°
2026-04-26 18:18 51.98817 7.31835 1487 ft 140 kts 159°
2026-04-26 18:18 51.97899 7.32338 1488 ft 139 kts 159°
2026-04-26 18:18 51.96994 7.32831 1487 ft 138 kts 159°
2026-04-26 18:19 51.96072 7.33331 1487 ft 139 kts 159°
2026-04-26 18:19 51.95153 7.33827 1483 ft 139 kts 159°
2026-04-26 18:19 51.94242 7.34310 1487 ft 139 kts 159°
2026-04-26 18:19 51.93321 7.34800 1484 ft 139 kts 159°
2026-04-26 18:20 51.92403 7.35289 1486 ft 139 kts 159°
2026-04-26 18:20 51.91476 7.35781 1487 ft 140 kts 159°
2026-04-26 18:20 51.90576 7.36266 1612 ft 133 kts 159°
2026-04-26 18:20 51.89986 7.36577 1695 ft 131 kts 159°
2026-04-26 18:21 51.88848 7.37184 1863 ft 129 kts 159°
2026-04-26 18:21 51.87997 7.37640 1976 ft 129 kts 159°
2026-04-26 18:21 51.87121 7.38104 1979 ft 135 kts 159°
2026-04-26 18:21 51.86218 7.38593 1982 ft 138 kts 159°
2026-04-26 18:22 51.85307 7.39089 1986 ft 138 kts 159°
2026-04-26 18:22 51.84393 7.39592 1989 ft 139 kts 159°
2026-04-26 18:22 51.83479 7.40090 1989 ft 139 kts 159°
2026-04-26 18:22 51.82564 7.40589 1992 ft 139 kts 159°
2026-04-26 18:23 51.81656 7.41081 1994 ft 139 kts 159°
2026-04-26 18:23 51.80732 7.41578 1996 ft 140 kts 159°
2026-04-26 18:23 51.79801 7.42051 1996 ft 140 kts 159°
2026-04-26 18:23 51.78870 7.42532 1997 ft 141 kts 159°
2026-04-26 18:24 51.77935 7.43015 1994 ft 141 kts 159°
2026-04-26 18:24 51.77003 7.43497 1994 ft 141 kts 159°
2026-04-26 18:24 51.76063 7.43974 1994 ft 142 kts 159°
2026-04-26 18:24 51.75122 7.44464 1992 ft 141 kts 156°
2026-04-26 18:25 51.74238 7.45126 1989 ft 139 kts 151°
2026-04-26 18:25 51.73370 7.45802 1989 ft 139 kts 151°
2026-04-26 18:25 51.72501 7.46475 1988 ft 139 kts 151°
2026-04-26 18:25 51.71631 7.47147 1987 ft 138 kts 151°
2026-04-26 18:26 51.70795 7.47906 1987 ft 137 kts 144°
2026-04-26 18:26 51.69995 7.48741 1988 ft 137 kts 144°
2026-04-26 18:26 51.69200 7.49563 1989 ft 138 kts 144°
2026-04-26 18:26 51.68389 7.50398 1977 ft 139 kts 144°
2026-04-26 18:27 51.67626 7.51337 1975 ft 137 kts 132°
2026-04-26 18:27 51.66959 7.52435 1975 ft 137 kts 131°
2026-04-26 18:27 51.66289 7.53533 1975 ft 137 kts 131°
2026-04-26 18:27 51.65619 7.54632 1973 ft 137 kts 131°
2026-04-26 18:28 51.64953 7.55728 1971 ft 136 kts 131°
2026-04-26 18:28 51.64293 7.56821 1969 ft 136 kts 131°
2026-04-26 18:28 51.63633 7.57906 1985 ft 135 kts 131°
2026-04-26 18:28 51.62973 7.58988 1984 ft 135 kts 131°
2026-04-26 18:29 51.62312 7.60067 1983 ft 135 kts 131°
2026-04-26 18:29 51.61654 7.61144 1983 ft 135 kts 131°
2026-04-26 18:29 51.61000 7.62219 1983 ft 134 kts 131°
2026-04-26 18:29 51.60346 7.63296 1984 ft 135 kts 131°
2026-04-26 18:30 51.59691 7.64374 1981 ft 135 kts 131°
2026-04-26 18:30 51.59041 7.65443 1981 ft 135 kts 131°
2026-04-26 18:30 51.58382 7.66526 1982 ft 136 kts 131°
2026-04-26 18:30 51.57720 7.67612 1982 ft 136 kts 131°
2026-04-26 18:31 51.57056 7.68710 1920 ft 140 kts 131°
2026-04-26 18:31 51.56373 7.69845 1819 ft 142 kts 131°
2026-04-26 18:31 51.55676 7.70984 1715 ft 143 kts 134°
2026-04-26 18:31 51.54792 7.71747 1613 ft 148 kts 165°
2026-04-26 18:32 51.53806 7.71374 1494 ft 152 kts 217°
2026-04-26 18:32 51.53338 7.69912 1301 ft 153 kts 268°
2026-04-26 18:32 51.53308 7.68374 1145 ft 124 kts 272°
2026-04-26 18:32 51.53321 7.67062 939 ft 112 kts 272°
2026-04-26 18:33 51.53320 7.65854 766 ft 105 kts 265°
2026-04-26 18:33 51.53084 7.64783 622 ft 101 kts 242°
2026-04-26 18:33 51.52755 7.63836 540 ft 96 kts 241°
2026-04-26 18:33 51.52433 7.62915 471 ft 95 kts 242°
2026-04-26 18:34 51.52109 7.62006 412 ft 92 kts 242°
2026-04-26 18:34 51.51803 7.61126 436 ft 100 kts 242°
2026-04-26 18:34 51.51458 7.60126 736 ft 95 kts 244°
2026-04-26 18:34 51.51120 7.59211 1041 ft 99 kts 227°
2026-04-26 18:35 51.50418 7.58940 1105 ft 115 kts 154°
2026-04-26 18:35 51.49936 7.59800 1395 ft 102 kts 87°
2026-04-26 18:35 51.50244 7.60935 1335 ft 124 kts 63°
2026-04-26 18:35 51.50671 7.62217 1224 ft 134 kts 60°
2026-04-26 18:36 51.51130 7.63498 1229 ft 126 kts 58°
2026-04-26 18:36 51.51676 7.64442 1227 ft 115 kts 17°
2026-04-26 18:36 51.52464 7.63974 1097 ft 136 kts 326°
2026-04-26 18:36 51.52358 7.62706 482 ft 140 kts 241°
2026-04-26 18:37 51.51904 7.61423 453 ft 125 kts 242°
2026-04-26 18:37 51.51516 7.60324 846 ft 107 kts 242°
2026-04-26 18:37 51.51166 7.59255 1081 ft 110 kts 241°
2026-04-26 18:37 51.50521 7.58886 1216 ft 115 kts 147°
2026-04-26 18:38 51.50181 7.59868 1344 ft 112 kts 65°
2026-04-26 18:38 51.50572 7.61070 1274 ft 128 kts 61°
2026-04-26 18:38 51.51015 7.62339 1268 ft 130 kts 59°
2026-04-26 18:38 51.51477 7.63573 1279 ft 130 kts 57°
2026-04-26 18:39 51.51983 7.64803 1245 ft 133 kts 54°
2026-04-26 18:39 51.52507 7.66003 1262 ft 129 kts 53°
2026-04-26 18:39 51.53156 7.66779 1220 ft 116 kts
2026-04-26 18:39 51.53696 7.66020 933 ft 112 kts 248°
2026-04-26 18:40 51.53238 7.65145 691 ft 94 kts 237°
2026-04-26 18:40 51.52930 7.64315 593 ft 81 kts 241°
2026-04-26 18:40 51.52647 7.63536 514 ft 82 kts 241°
2026-04-26 18:40 51.52366 7.62713 530 ft 92 kts 243°
2026-04-26 18:41 51.52039 7.61807 730 ft 99 kts 241°
2026-04-26 18:41 51.51688 7.60824 904 ft 103 kts 240°
2026-04-26 18:41 51.51367 7.59771 1081 ft 105 kts 252°
2026-04-26 18:41 51.51109 7.58668 1294 ft 107 kts 250°
2026-04-26 18:42 51.50921 7.57516 1497 ft 106 kts 260°
2026-04-26 18:42 51.50766 7.56344 1718 ft 109 kts 259°
2026-04-26 18:42 51.50607 7.55163 1924 ft 110 kts 259°
2026-04-26 18:42 51.50462 7.53901 1991 ft 121 kts 265°
2026-04-26 18:43 51.50364 7.52518 2000 ft 127 kts 265°
2026-04-26 18:43 51.50263 7.51093 2000 ft 129 kts 265°
2026-04-26 18:43 51.50158 7.49655 2014 ft 130 kts 265°
2026-04-26 18:43 51.50053 7.48215 2012 ft 130 kts 265°
2026-04-26 18:44 51.49952 7.46775 2007 ft 130 kts 265°
2026-04-26 18:44 51.49851 7.45324 1994 ft 135 kts 265°
2026-04-26 18:44 51.49742 7.43802 1991 ft 141 kts 265°
2026-04-26 18:44 51.49631 7.42236 1993 ft 143 kts 265°
2026-04-26 18:45 51.49514 7.40638 1996 ft 144 kts 265°
2026-04-26 18:45 51.49404 7.39040 1996 ft 144 kts 265°
2026-04-26 18:45 51.49187 7.37468 1994 ft 144 kts 251°
2026-04-26 18:45 51.48849 7.35948 1995 ft 145 kts 251°
2026-04-26 18:46 51.48510 7.34414 1995 ft 146 kts 251°
2026-04-26 18:46 51.48174 7.32879 1995 ft 146 kts 251°
2026-04-26 18:46 51.47833 7.31333 1992 ft 147 kts 251°
2026-04-26 18:46 51.47490 7.29787 1993 ft 148 kts 251°
2026-04-26 18:47 51.47154 7.28264 1991 ft 147 kts 251°
2026-04-26 18:47 51.46813 7.26714 1992 ft 148 kts 251°
2026-04-26 18:47 51.46474 7.25168 1993 ft 146 kts 251°
2026-04-26 18:47 51.46132 7.23626 1991 ft 147 kts 251°
2026-04-26 18:48 51.45789 7.22087 1990 ft 146 kts 252°
2026-04-26 18:48 51.45443 7.20554 1991 ft 147 kts 251°
2026-04-26 18:48 51.45102 7.19003 1990 ft 147 kts 252°
2026-04-26 18:48 51.44596 7.17594 1990 ft 147 kts 226°
2026-04-26 18:49 51.43895 7.16407 1988 ft 147 kts 226°
2026-04-26 18:49 51.43202 7.15198 1990 ft 148 kts 226°
2026-04-26 18:49 51.42500 7.14001 1988 ft 147 kts 226°
2026-04-26 18:49 51.41801 7.12803 1990 ft 148 kts 226°
2026-04-26 18:50 51.41092 7.11598 1997 ft 149 kts 226°
2026-04-26 18:50 51.40389 7.10414 1993 ft 148 kts 225°
2026-04-26 18:50 51.39683 7.09209 1988 ft 148 kts 227°
2026-04-26 18:50 51.38971 7.08022 1985 ft 146 kts 225°
2026-04-26 18:51 51.38271 7.06845 1990 ft 146 kts 226°
2026-04-26 18:51 51.37572 7.05651 1990 ft 147 kts 225°
2026-04-26 18:51 51.36868 7.04456 1984 ft 146 kts 226°
2026-04-26 18:51 51.36176 7.03288 1991 ft 147 kts 226°
2026-04-26 18:52 51.35466 7.02113 1989 ft 147 kts 226°
2026-04-26 18:52 51.34759 7.00928 1989 ft 148 kts 227°
2026-04-26 18:52 51.34043 6.99765 1987 ft 145 kts 226°
2026-04-26 18:52 51.33341 6.98605 1989 ft 146 kts 226°
2026-04-26 18:53 51.32636 6.97426 1985 ft 146 kts 226°
2026-04-26 18:53 51.31935 6.96255 1986 ft 145 kts 225°